sat.trackr.live / text

‹ back to catalog

STARLINK-2435

NORAD 47843 · 2021-018BJ

PAYLOAD ACTIVE UNKNOWN

§ Identity

Operator
Country
US
Launch date
2021-03-11
Launch site
AFETR
Launch vehicle
Mass (kg)
RCS (m²)

Purposes: comms

External: N2YO · Heavens-Above · Gunter

§ Orbital elements

Epoch: 2026-09-20T01:03:36.846144Z

Period
94.01 min
Inclination
53.1586°
Eccentricity
0.0000837
Mean motion
15.31700307 rev/d
Perigee alt
470.2 km
Apogee alt
471.3 km
Semi-major
6,848.9 km
B*
-3.4634e-5
RAAN
70.8067°
Arg perigee
67.6874°
Mean anomaly
292.4216°
Rev number
30,634

§ Raw data

STARLINK-24351 47843U 21018BJ  26263.04417646 -.00001439  00000+0 -34634-4 0  99912 47843  53.1586  70.8067 0000837  67.6874 292.4216 15.31700307306349

JSON: /api/v1/satellites/47843 · /tle

For live sub-satellite position, see the globe view (requires WebGL).

§ Visibility from observer

Set your observer location to see the next 7 days of passes ≥ 10°. The values pass through the URL so the page stays shareable.

No JS? Fill the form by hand. The geolocation button needs JavaScript.